Time,TemperatureF,DewpointF,PressureIn,WindDirection,WindDirectionDegrees,WindSpeedMPH,WindSpeedGustMPH,Humidity,HourlyPrecipIn,Conditions,Clouds,dailyrainin,SoftwareType,DateUTC
2013-07-25 00:00:00,77.9,76.0,29.79,SSE,158,1.0,3.0,94,0.00,,,0.00,WUHU216DAVISVP2,2013-07-25 04:00:00,
2013-07-25 00:01:00,77.8,75.9,29.79,SW,224,0.0,0.0,94,0.00,,,0.00,Wunderground v.1.15,2013-07-25 04:01:00,
2013-07-25 00:05:00,77.8,75.9,29.79,SW,224,0.0,0.0,94,0.00,,,0.00,Wunderground v.1.15,2013-07-25 04:05:00,
2013-07-25 00:10:00,77.7,75.8,29.80,SSE,167,0.0,0.0,94,0.00,,,0.00,Wunderground v.1.15,2013-07-25 04:10:00,
2013-07-25 00:20:00,77.6,75.7,29.79,SE,144,0.0,0.0,94,0.00,,,0.00,Wunderground v.1.15,2013-07-25 04:20:00,
2013-07-25 00:25:00,77.5,75.6,29.79,SE,144,0.0,0.0,94,0.00,,,0.00,Wunderground v.1.15,2013-07-25 04:25:00,
2013-07-25 00:30:00,77.4,75.5,29.79,SE,144,0.0,0.0,94,0.00,,,0.00,Wunderground v.1.15,2013-07-25 04:30:00,
2013-07-25 00:35:00,77.3,75.4,29.79,SE,144,0.0,0.0,94,0.00,,,0.00,Wunderground v.1.15,2013-07-25 04:35:00,
2013-07-25 00:45:00,77.4,75.5,29.79,SE,144,0.0,0.0,94,0.00,,,0.00,Wunderground v.1.15,2013-07-25 04:45:00,
2013-07-25 00:50:00,77.2,75.3,29.79,SE,144,0.0,0.0,94,0.00,,,0.00,Wunderground v.1.15,2013-07-25 04:50:00,
2013-07-25 00:55:00,77.2,75.7,29.79,SE,144,0.0,0.0,95,0.00,,,0.00,Wunderground v.1.15,2013-07-25 04:55:00,
2013-07-25 01:00:00,77.2,75.7,29.79,SE,135,0.0,1.0,95,0.00,,,0.00,WUHU216DAVISVP2,2013-07-25 05:00:00,
2013-07-25 01:01:00,77.2,75.3,29.79,SE,144,0.0,0.0,94,0.00,,,0.00,Wunderground v.1.15,2013-07-25 05:01:00,
2013-07-25 01:10:00,77.1,75.2,29.79,SE,144,0.0,0.0,94,0.00,,,0.00,Wunderground v.1.15,2013-07-25 05:10:00,
2013-07-25 01:15:00,77.1,75.2,29.78,SE,144,0.0,0.0,94,0.00,,,0.00,Wunderground v.1.15,2013-07-25 05:15:00,
2013-07-25 01:20:00,77.0,75.5,29.78,SE,144,0.0,0.0,95,0.00,,,0.00,Wunderground v.1.15,2013-07-25 05:20:00,
2013-07-25 01:30:00,77.0,75.5,29.78,SE,144,0.0,1.0,95,0.00,,,0.00,Wunderground v.1.15,2013-07-25 05:30:00,
2013-07-25 01:35:00,77.0,75.1,29.78,NW,314,1.0,2.0,94,0.00,,,0.00,Wunderground v.1.15,2013-07-25 05:35:00,
2013-07-25 01:40:00,77.0,75.5,29.78,NW,318,2.0,2.0,95,0.00,,,0.00,Wunderground v.1.15,2013-07-25 05:40:00,
2013-07-25 01:45:00,77.0,75.5,29.77,NNW,327,2.0,2.0,95,0.00,,,0.00,Wunderground v.1.15,2013-07-25 05:45:00,
2013-07-25 01:55:00,77.1,75.6,29.77,NW,326,1.0,2.0,95,0.00,,,0.00,Wunderground v.1.15,2013-07-25 05:55:00,
2013-07-25 02:00:00,77.0,75.5,29.77,NW,312,1.0,2.0,95,0.00,,,0.00,Wunderground v.1.15,2013-07-25 06:00:00,
2013-07-25 02:10:00,77.1,75.6,29.76,NNW,328,2.0,2.0,95,0.00,,,0.00,Wunderground v.1.15,2013-07-25 06:10:00,
2013-07-25 02:15:00,77.1,75.9,29.76,NNW,329,2.0,3.0,96,0.00,,,0.00,Wunderground v.1.15,2013-07-25 06:15:00,
2013-07-25 02:20:00,77.1,75.9,29.76,NNW,330,2.0,2.0,96,0.00,,,0.00,Wunderground v.1.15,2013-07-25 06:20:00,
2013-07-25 02:25:00,77.0,75.5,29.76,NW,323,2.0,2.0,95,0.00,,,0.00,Wunderground v.1.15,2013-07-25 06:25:00,
2013-07-25 02:30:00,76.9,75.7,29.76,NW,315,2.0,4.0,96,0.00,,,0.00,WUHU216DAVISVP2,2013-07-25 06:30:00,
2013-07-25 02:35:00,76.8,75.6,29.76,NW,305,2.0,2.0,96,0.00,,,0.00,Wunderground v.1.15,2013-07-25 06:35:00,
2013-07-25 02:40:00,76.8,75.6,29.75,NW,320,3.0,3.0,96,0.00,,,0.00,Wunderground v.1.15,2013-07-25 06:40:00,
2013-07-25 02:45:00,76.8,75.6,29.75,NW,317,3.0,5.0,96,0.00,,,0.00,Wunderground v.1.15,2013-07-25 06:45:00,
2013-07-25 02:50:00,76.9,75.7,29.75,NW,326,3.0,3.0,96,0.00,,,0.00,Wunderground v.1.15,2013-07-25 06:50:00,
2013-07-25 03:00:00,76.8,75.6,29.75,North,359,2.0,2.0,96,0.00,,,0.00,Wunderground v.1.15,2013-07-25 07:00:00,
2013-07-25 03:10:00,76.8,75.6,29.75,NNW,338,2.0,2.0,96,0.00,,,0.00,Wunderground v.1.15,2013-07-25 07:10:00,
2013-07-25 03:15:00,76.8,75.6,29.75,NW,325,2.0,2.0,96,0.00,,,0.00,Wunderground v.1.15,2013-07-25 07:15:00,
2013-07-25 03:20:00,76.8,75.9,29.75,NW,323,2.0,3.0,97,0.00,,,0.00,Wunderground v.1.15,2013-07-25 07:20:00,
2013-07-25 03:25:00,76.8,75.9,29.75,NW,311,2.0,3.0,97,0.00,,,0.00,Wunderground v.1.15,2013-07-25 07:25:00,
2013-07-25 03:30:00,76.8,75.9,29.74,NW,315,2.0,4.0,97,0.00,,,0.00,WUHU216DAVISVP2,2013-07-25 07:30:00,
2013-07-25 03:35:00,76.7,75.8,29.74,NW,314,4.0,6.0,97,0.00,,,0.00,Wunderground v.1.15,2013-07-25 07:35:00,
2013-07-25 03:40:00,76.7,75.8,29.75,North,2,5.0,5.0,97,0.00,,,0.00,Wunderground v.1.15,2013-07-25 07:40:00,
2013-07-25 03:45:00,76.6,75.7,29.75,NNW,330,4.0,5.0,97,0.00,,,0.00,Wunderground v.1.15,2013-07-25 07:45:00,
2013-07-25 03:50:00,76.6,75.7,29.75,NNW,340,3.0,3.0,97,0.00,,,0.00,Wunderground v.1.15,2013-07-25 07:50:00,
2013-07-25 04:00:00,76.5,75.6,29.75,NW,313,3.0,3.0,97,0.00,,,0.00,Wunderground v.1.15,2013-07-25 08:00:00,
2013-07-25 04:10:00,76.2,75.0,29.74,NW,323,3.0,3.0,96,0.00,,,0.00,Wunderground v.1.15,2013-07-25 08:10:00,
2013-07-25 04:15:00,76.1,74.9,29.74,North,7,3.0,3.0,96,0.00,,,0.00,Wunderground v.1.15,2013-07-25 08:15:00,
2013-07-25 04:20:00,76.0,74.8,29.74,NNW,345,3.0,3.0,96,0.00,,,0.00,Wunderground v.1.15,2013-07-25 08:20:00,
2013-07-25 04:25:00,75.8,74.6,29.74,NW,319,3.0,3.0,96,0.00,,,0.00,Wunderground v.1.15,2013-07-25 08:25:00,
2013-07-25 04:30:00,75.7,74.5,29.74,North,4,3.0,3.0,96,0.00,,,0.00,Wunderground v.1.15,2013-07-25 08:30:00,
2013-07-25 04:35:00,75.5,74.3,29.74,North,359,2.0,3.0,96,0.00,,,0.00,Wunderground v.1.15,2013-07-25 08:35:00,
2013-07-25 04:45:00,75.4,74.2,29.74,NE,56,3.0,3.0,96,0.00,,,0.00,Wunderground v.1.15,2013-07-25 08:45:00,
2013-07-25 04:50:00,75.5,74.3,29.75,NE,54,3.0,5.0,96,0.00,,,0.00,Wunderground v.1.15,2013-07-25 08:50:00,
2013-07-25 04:55:00,75.5,74.3,29.75,NE,56,4.0,5.0,96,0.00,,,0.00,Wunderground v.1.15,2013-07-25 08:55:00,
2013-07-25 05:00:00,75.5,74.3,29.75,NE,34,4.0,4.0,96,0.00,,,0.00,Wunderground v.1.15,2013-07-25 09:00:00,
2013-07-25 05:10:00,75.5,74.3,29.75,NNE,32,2.0,3.0,96,0.00,,,0.00,Wunderground v.1.15,2013-07-25 09:10:00,
2013-07-25 05:20:00,75.4,74.5,29.76,NE,40,3.0,4.0,97,0.00,,,0.00,Wunderground v.1.15,2013-07-25 09:20:00,
2013-07-25 05:25:00,75.3,74.1,29.76,NE,44,5.0,7.0,96,0.00,,,0.00,Wunderground v.1.15,2013-07-25 09:25:00,
2013-07-25 05:30:00,75.3,74.4,29.76,NE,55,7.0,8.0,97,0.00,,,0.00,Wunderground v.1.15,2013-07-25 09:30:00,
2013-07-25 05:35:00,75.4,74.5,29.76,NE,45,9.0,9.0,97,0.00,,,0.00,Wunderground v.1.15,2013-07-25 09:35:00,
2013-07-25 05:45:00,75.3,74.4,29.77,NE,40,8.0,10.0,97,0.00,,,0.00,Wunderground v.1.15,2013-07-25 09:45:00,
2013-07-25 05:50:00,75.3,74.4,29.77,NE,42,7.0,7.0,97,0.00,,,0.00,Wunderground v.1.15,2013-07-25 09:50:00,
2013-07-25 05:55:00,75.3,74.4,29.77,NE,35,6.0,7.0,97,0.00,,,0.00,Wunderground v.1.15,2013-07-25 09:55:00,
2013-07-25 06:00:00,75.3,74.4,29.77,NE,45,7.0,12.0,97,0.00,,,0.00,WUHU216DAVISVP2,2013-07-25 10:00:00,
2013-07-25 06:01:00,75.3,74.4,29.77,NNE,20,6.0,6.0,97,0.00,,,0.00,Wunderground v.1.15,2013-07-25 10:01:00,
2013-07-25 06:10:00,75.5,74.6,29.77,NE,56,8.0,11.0,97,0.00,,,0.00,Wunderground v.1.15,2013-07-25 10:10:00,
2013-07-25 06:20:00,75.6,74.7,29.77,ENE,59,10.0,10.0,97,0.00,,,0.00,Wunderground v.1.15,2013-07-25 10:20:00,
2013-07-25 06:25:00,75.6,74.7,29.77,NE,49,9.0,10.0,97,0.00,,,0.00,Wunderground v.1.15,2013-07-25 10:25:00,
2013-07-25 06:30:00,75.7,74.8,29.77,ENE,57,8.0,9.0,97,0.00,,,0.00,Wunderground v.1.15,2013-07-25 10:30:00,
2013-07-25 06:35:00,75.7,74.8,29.77,NE,49,9.0,9.0,97,0.00,,,0.00,Wunderground v.1.15,2013-07-25 10:35:00,
2013-07-25 06:45:00,75.5,74.6,29.78,NE,44,6.0,7.0,97,0.00,,,0.00,Wunderground v.1.15,2013-07-25 10:45:00,
2013-07-25 06:50:00,75.3,74.4,29.78,NNE,15,8.0,8.0,97,0.00,,,0.00,Wunderground v.1.15,2013-07-25 10:50:00,
2013-07-25 06:55:00,75.1,74.2,29.78,NNE,16,8.0,8.0,97,0.00,,,0.00,Wunderground v.1.15,2013-07-25 10:55:00,
2013-07-25 07:00:00,75.1,74.2,29.78,NW,326,7.0,7.0,97,0.00,,,0.00,Wunderground v.1.15,2013-07-25 11:00:00,
2013-07-25 07:10:00,75.1,73.9,29.78,NNE,20,5.0,9.0,96,0.00,,,0.00,Wunderground v.1.15,2013-07-25 11:10:00,
2013-07-25 07:15:00,75.2,73.7,29.78,NNE,21,6.0,11.0,95,0.00,,,0.00,Wunderground v.1.15,2013-07-25 11:15:00,
2013-07-25 07:25:00,74.9,73.1,29.79,NW,323,8.0,10.0,94,0.00,,,0.00,Wunderground v.1.15,2013-07-25 11:25:00,
2013-07-25 07:30:00,75.0,72.8,29.78,NNW,347,8.0,8.0,93,0.00,,,0.00,Wunderground v.1.15,2013-07-25 11:30:00,
2013-07-25 07:40:00,75.3,72.2,29.79,NNE,26,7.0,7.0,90,0.00,,,0.00,Wunderground v.1.15,2013-07-25 11:40:00,
2013-07-25 07:45:00,75.4,71.9,29.79,North,5,7.0,7.0,89,0.00,,,0.00,Wunderground v.1.15,2013-07-25 11:45:00,
2013-07-25 07:50:00,75.7,71.9,29.79,NE,37,6.0,6.0,88,0.00,,,0.00,Wunderground v.1.15,2013-07-25 11:50:00,
2013-07-25 07:55:00,75.6,70.8,29.79,NE,35,8.0,12.0,85,0.00,,,0.00,Wunderground v.1.15,2013-07-25 11:55:00,
2013-07-25 08:00:00,75.6,71.1,29.80,NNE,23,7.0,19.0,86,0.00,,,0.00,WUHU216DAVISVP2,2013-07-25 12:00:00,
2013-07-25 08:01:00,75.6,71.1,29.80,North,359,9.0,9.0,86,0.00,,,0.00,Wunderground v.1.15,2013-07-25 12:01:00,
2013-07-25 08:10:00,75.7,71.2,29.81,NW,312,7.0,7.0,86,0.00,,,0.00,Wunderground v.1.15,2013-07-25 12:10:00,
2013-07-25 08:20:00,75.8,71.3,29.80,North,9,7.0,7.0,86,0.00,,,0.00,Wunderground v.1.15,2013-07-25 12:20:00,
2013-07-25 08:25:00,76.4,71.6,29.80,North,10,6.0,7.0,85,0.00,,,0.00,Wunderground v.1.15,2013-07-25 12:25:00,
2013-07-25 08:32:00,77.0,71.8,29.80,NNW,343,4.0,11.0,84,0.00,,,0.00,WUHU216DAVISVP2,2013-07-25 12:32:00,
2013-07-25 08:37:00,77.3,71.5,29.81,North,358,7.0,14.0,82,0.00,,,0.00,WUHU216DAVISVP2,2013-07-25 12:37:00,
2013-07-25 08:42:00,77.7,71.8,29.81,NNW,336,5.0,14.0,82,0.00,,,0.00,WUHU216DAVISVP2,2013-07-25 12:42:00,
2013-07-25 08:47:00,78.2,71.9,29.81,North,4,6.0,14.0,81,0.00,,,0.00,WUHU216DAVISVP2,2013-07-25 12:47:00,
2013-07-25 08:52:00,78.9,72.2,29.81,North,353,3.0,14.0,80,0.00,,,0.00,WUHU216DAVISVP2,2013-07-25 12:52:00,
2013-07-25 08:57:00,79.3,72.3,29.82,NW,305,3.0,10.0,79,0.00,,,0.00,WUHU216DAVISVP2,2013-07-25 12:57:00,
2013-07-25 09:02:00,79.4,72.1,29.81,NW,317,1.0,11.0,78,0.00,,,0.00,WUHU216DAVISVP2,2013-07-25 13:02:00,
2013-07-25 09:07:00,79.8,72.1,29.82,NNE,20,7.0,11.0,77,0.00,,,0.00,WUHU216DAVISVP2,2013-07-25 13:07:00,
2013-07-25 09:12:00,79.6,71.9,29.81,NE,47,10.0,14.0,77,0.00,,,0.00,WUHU216DAVISVP2,2013-07-25 13:12:00,
2013-07-25 09:17:00,79.8,72.1,29.82,NE,41,11.0,14.0,77,0.00,,,0.00,WUHU216DAVISVP2,2013-07-25 13:17:00,
2013-07-25 09:22:00,79.7,72.0,29.82,NW,313,6.0,14.0,77,0.00,,,0.00,WUHU216DAVISVP2,2013-07-25 13:22:00,
2013-07-25 09:27:00,79.8,72.1,29.82,East,96,6.0,14.0,77,0.00,,,0.00,WUHU216DAVISVP2,2013-07-25 13:27:00,
2013-07-25 09:32:00,80.1,72.4,29.82,NE,49,10.0,14.0,77,0.00,,,0.00,WUHU216DAVISVP2,2013-07-25 13:32:00,
2013-07-25 09:37:00,80.3,71.6,29.82,NNE,32,8.0,15.0,75,0.00,,,0.00,WUHU216DAVISVP2,2013-07-25 13:37:00,
2013-07-25 09:42:00,81.0,72.7,29.82,NE,38,7.0,15.0,76,0.00,,,0.00,WUHU216DAVISVP2,2013-07-25 13:42:00,
2013-07-25 09:47:00,80.1,72.8,29.82,NE,46,11.0,15.0,78,0.00,,,0.00,WUHU216DAVISVP2,2013-07-25 13:47:00,
2013-07-25 09:52:00,79.6,72.6,29.82,NE,51,11.0,15.0,79,0.00,,,0.00,WUHU216DAVISVP2,2013-07-25 13:52:00,
2013-07-25 09:57:00,79.4,73.2,29.82,NE,51,9.0,15.0,81,0.00,,,0.00,WUHU216DAVISVP2,2013-07-25 13:57:00,
2013-07-25 10:02:00,78.8,72.6,29.82,NE,41,9.0,15.0,81,0.00,,,0.00,WUHU216DAVISVP2,2013-07-25 14:02:00,
2013-07-25 10:07:00,78.6,72.4,29.81,NE,46,10.0,14.0,81,0.00,,,0.00,WUHU216DAVISVP2,2013-07-25 14:07:00,
2013-07-25 10:12:00,78.6,72.7,29.82,NE,37,5.0,13.0,82,0.00,,,0.00,WUHU216DAVISVP2,2013-07-25 14:12:00,
2013-07-25 10:17:00,79.2,71.9,29.82,NE,40,6.0,13.0,78,0.00,,,0.00,WUHU216DAVISVP2,2013-07-25 14:17:00,
2013-07-25 10:22:00,79.7,72.0,29.82,NE,46,9.0,13.0,77,0.00,,,0.00,WUHU216DAVISVP2,2013-07-25 14:22:00,
2013-07-25 10:27:00,80.3,71.1,29.82,NE,46,4.0,11.0,73,0.00,,,0.00,WUHU216DAVISVP2,2013-07-25 14:27:00,
2013-07-25 10:32:00,80.1,71.5,29.82,ENE,64,5.0,11.0,75,0.00,,,0.00,WUHU216DAVISVP2,2013-07-25 14:32:00,
2013-07-25 10:37:00,79.9,72.4,29.83,NE,48,8.0,11.0,78,0.00,,,0.00,WUHU216DAVISVP2,2013-07-25 14:37:00,
2013-07-25 10:42:00,80.3,72.4,29.83,NE,42,5.0,10.0,77,0.00,,,0.00,WUHU216DAVISVP2,2013-07-25 14:42:00,
2013-07-25 10:47:00,80.5,72.0,29.83,NE,53,8.0,10.0,75,0.00,,,0.00,WUHU216DAVISVP2,2013-07-25 14:47:00,
2013-07-25 10:52:00,80.6,72.9,29.83,NE,54,7.0,10.0,77,0.00,,,0.00,WUHU216DAVISVP2,2013-07-25 14:52:00,
2013-07-25 10:57:00,80.8,73.1,29.83,North,4,8.0,13.0,77,0.00,,,0.00,WUHU216DAVISVP2,2013-07-25 14:57:00,
2013-07-25 11:02:00,81.2,73.1,29.83,WNW,303,3.0,13.0,76,0.00,,,0.00,WUHU216DAVISVP2,2013-07-25 15:02:00,
2013-07-25 11:07:00,82.0,71.9,29.83,NE,39,8.0,13.0,71,0.00,,,0.00,WUHU216DAVISVP2,2013-07-25 15:07:00,
2013-07-25 11:12:00,81.4,73.7,29.83,NE,36,4.0,13.0,77,0.00,,,0.00,WUHU216DAVISVP2,2013-07-25 15:12:00,
2013-07-25 11:17:00,81.6,74.2,29.83,ENE,72,6.0,8.0,78,0.00,,,0.00,WUHU216DAVISVP2,2013-07-25 15:17:00,
2013-07-25 11:22:00,81.8,74.3,29.83,ENE,65,4.0,8.0,78,0.00,,,0.00,WUHU216DAVISVP2,2013-07-25 15:22:00,
2013-07-25 11:27:00,81.9,74.0,29.83,ENE,75,4.0,8.0,77,0.00,,,0.00,WUHU216DAVISVP2,2013-07-25 15:27:00,
2013-07-25 11:32:00,82.3,73.8,29.84,ENE,77,4.0,8.0,75,0.00,,,0.00,WUHU216DAVISVP2,2013-07-25 15:32:00,
2013-07-25 11:37:00,82.4,74.2,29.84,NE,38,4.0,8.0,76,0.00,,,0.00,WUHU216DAVISVP2,2013-07-25 15:37:00,
2013-07-25 11:42:00,82.3,74.2,29.84,ENE,65,4.0,8.0,76,0.00,,,0.00,WUHU216DAVISVP2,2013-07-25 15:42:00,
2013-07-25 11:47:00,82.3,74.5,29.84,NE,47,3.0,8.0,77,0.00,,,0.00,WUHU216DAVISVP2,2013-07-25 15:47:00,
2013-07-25 11:52:00,82.5,74.3,29.84,East,84,4.0,8.0,76,0.00,,,0.00,WUHU216DAVISVP2,2013-07-25 15:52:00,
2013-07-25 11:57:00,82.1,74.3,29.84,ENE,75,5.0,7.0,77,0.00,,,0.00,WUHU216DAVISVP2,2013-07-25 15:57:00,
2013-07-25 12:02:00,82.0,74.5,29.84,ESE,122,3.0,7.0,78,0.00,,,0.00,WUHU216DAVISVP2,2013-07-25 16:02:00,
2013-07-25 12:07:00,82.0,74.6,29.84,ENE,71,7.0,8.0,78,0.00,,,0.00,WUHU216DAVISVP2,2013-07-25 16:07:00,
2013-07-25 12:12:00,81.9,75.2,29.84,East,81,5.0,8.0,80,0.00,,,0.00,WUHU216DAVISVP2,2013-07-25 16:12:00,
2013-07-25 12:17:00,81.9,74.5,29.84,East,89,4.0,8.0,78,0.00,,,0.00,WUHU216DAVISVP2,2013-07-25 16:17:00,
2013-07-25 12:22:00,82.0,74.2,29.85,ENE,62,2.0,8.0,77,0.00,,,0.00,WUHU216DAVISVP2,2013-07-25 16:22:00,
2013-07-25 12:27:00,82.6,74.3,29.84,ESE,117,4.0,7.0,76,0.00,,,0.00,WUHU216DAVISVP2,2013-07-25 16:27:00,
2013-07-25 12:32:00,82.8,74.6,29.84,ESE,117,3.0,6.0,76,0.00,,,0.00,WUHU216DAVISVP2,2013-07-25 16:32:00,
2013-07-25 12:37:00,82.9,74.3,29.84,East,94,4.0,6.0,75,0.00,,,0.00,WUHU216DAVISVP2,2013-07-25 16:37:00,
2013-07-25 12:42:00,82.7,74.9,29.84,East,79,7.0,7.0,77,0.00,,,0.00,WUHU216DAVISVP2,2013-07-25 16:42:00,
2013-07-25 12:47:00,82.8,75.4,29.84,ESE,103,7.0,7.0,78,0.00,,,0.00,WUHU216DAVISVP2,2013-07-25 16:47:00,
2013-07-25 12:52:00,83.0,75.2,29.84,NE,49,5.0,7.0,77,0.00,,,0.00,WUHU216DAVISVP2,2013-07-25 16:52:00,
2013-07-25 12:57:00,82.9,74.9,29.84,NE,47,7.0,9.0,77,0.00,,,0.00,WUHU216DAVISVP2,2013-07-25 16:57:00,
2013-07-25 13:02:00,82.4,75.0,29.84,East,98,7.0,9.0,78,0.00,,,0.00,WUHU216DAVISVP2,2013-07-25 17:02:00,
2013-07-25 13:07:00,82.2,75.2,29.84,East,91,10.0,11.0,79,0.00,,,0.00,WUHU216DAVISVP2,2013-07-25 17:07:00,
2013-07-25 13:12:00,82.0,74.8,29.84,North,357,10.0,11.0,79,0.00,,,0.00,WUHU216DAVISVP2,2013-07-25 17:12:00,
2013-07-25 13:17:00,81.9,75.6,29.84,NE,39,7.0,11.0,81,0.00,,,0.00,WUHU216DAVISVP2,2013-07-25 17:17:00,
2013-07-25 13:22:00,82.0,75.3,29.84,NNE,23,7.0,11.0,80,0.00,,,0.00,WUHU216DAVISVP2,2013-07-25 17:22:00,
2013-07-25 13:27:00,82.0,75.0,29.84,NE,52,9.0,11.0,79,0.00,,,0.00,WUHU216DAVISVP2,2013-07-25 17:27:00,
2013-07-25 13:32:00,81.6,74.6,29.84,East,83,7.0,10.0,79,0.00,,,0.00,WUHU216DAVISVP2,2013-07-25 17:32:00,
2013-07-25 13:37:00,81.8,74.6,29.84,ESE,123,6.0,9.0,79,0.00,,,0.00,WUHU216DAVISVP2,2013-07-25 17:37:00,
2013-07-25 13:42:00,81.9,75.2,29.84,North,2,6.0,9.0,80,0.00,,,0.00,WUHU216DAVISVP2,2013-07-25 17:42:00,
2013-07-25 13:47:00,81.9,74.9,29.84,NE,49,6.0,9.0,79,0.00,,,0.00,WUHU216DAVISVP2,2013-07-25 17:47:00,
2013-07-25 13:52:00,82.0,75.3,29.84,NE,51,8.0,9.0,80,0.00,,,0.00,WUHU216DAVISVP2,2013-07-25 17:52:00,
2013-07-25 13:57:00,82.3,75.1,29.84,NNW,336,4.0,9.0,79,0.00,,,0.00,WUHU216DAVISVP2,2013-07-25 17:57:00,
2013-07-25 14:02:00,82.5,75.5,29.84,East,98,4.0,9.0,79,0.00,,,0.00,WUHU216DAVISVP2,2013-07-25 18:02:00,
2013-07-25 14:07:00,82.6,75.2,29.84,ENE,73,6.0,9.0,78,0.00,,,0.00,WUHU216DAVISVP2,2013-07-25 18:07:00,
2013-07-25 14:12:00,82.0,75.0,29.84,East,92,3.0,9.0,79,0.00,,,0.00,WUHU216DAVISVP2,2013-07-25 18:12:00,
2013-07-25 14:17:00,81.8,74.8,29.85,ENE,65,7.0,9.0,79,0.00,,,0.00,WUHU216DAVISVP2,2013-07-25 18:17:00,
2013-07-25 14:22:00,81.2,74.4,29.85,ESE,108,4.0,9.0,80,0.00,,,0.00,WUHU216DAVISVP2,2013-07-25 18:22:00,
2013-07-25 14:27:00,81.1,74.5,29.85,SE,126,5.0,9.0,80,0.00,,,0.00,WUHU216DAVISVP2,2013-07-25 18:27:00,
2013-07-25 14:32:00,80.8,74.2,29.85,SE,137,7.0,8.0,80,0.00,,,0.00,WUHU216DAVISVP2,2013-07-25 18:32:00,
2013-07-25 14:37:00,80.4,74.1,29.85,SE,129,8.0,9.0,81,0.00,,,0.00,WUHU216DAVISVP2,2013-07-25 18:37:00,
2013-07-25 14:42:00,80.3,74.4,29.85,SSE,153,4.0,9.0,82,0.00,,,0.00,WUHU216DAVISVP2,2013-07-25 18:42:00,
2013-07-25 14:47:00,80.9,75.0,29.85,SSE,150,6.0,9.0,82,0.00,,,0.00,WUHU216DAVISVP2,2013-07-25 18:47:00,
2013-07-25 14:52:00,81.1,74.8,29.85,ESE,104,6.0,9.0,81,0.00,,,0.00,WUHU216DAVISVP2,2013-07-25 18:52:00,
2013-07-25 14:57:00,80.9,74.6,29.85,SE,143,7.0,8.0,81,0.00,,,0.00,WUHU216DAVISVP2,2013-07-25 18:57:00,
2013-07-25 15:02:00,80.5,74.2,29.85,SE,146,5.0,8.0,81,0.00,,,0.00,WUHU216DAVISVP2,2013-07-25 19:02:00,
2013-07-25 15:07:00,80.3,74.4,29.85,SE,135,6.0,8.0,82,0.00,,,0.00,WUHU216DAVISVP2,2013-07-25 19:07:00,
2013-07-25 15:12:00,80.2,74.3,29.85,SSE,148,7.0,7.0,82,0.00,,,0.00,WUHU216DAVISVP2,2013-07-25 19:12:00,
2013-07-25 15:17:00,80.0,74.4,29.85,SSE,157,4.0,8.0,83,0.00,,,0.00,WUHU216DAVISVP2,2013-07-25 19:17:00,
2013-07-25 15:22:00,79.8,74.2,29.85,SSE,151,5.0,8.0,83,0.00,,,0.00,WUHU216DAVISVP2,2013-07-25 19:22:00,
2013-07-25 15:27:00,79.9,74.3,29.85,South,181,5.0,8.0,83,0.00,,,0.00,WUHU216DAVISVP2,2013-07-25 19:27:00,
2013-07-25 15:32:00,80.1,74.1,29.85,SSE,162,6.0,8.0,82,0.00,,,0.00,WUHU216DAVISVP2,2013-07-25 19:32:00,
2013-07-25 15:37:00,80.2,74.6,29.85,SSE,155,5.0,7.0,83,0.00,,,0.00,WUHU216DAVISVP2,2013-07-25 19:37:00,
2013-07-25 15:42:00,80.4,74.8,29.85,SSE,153,4.0,7.0,83,0.00,,,0.00,WUHU216DAVISVP2,2013-07-25 19:42:00,
2013-07-25 15:47:00,80.7,74.8,29.85,SSE,164,6.0,10.0,82,0.00,,,0.00,WUHU216DAVISVP2,2013-07-25 19:47:00,
2013-07-25 15:52:00,80.8,73.8,29.85,WSW,249,2.0,10.0,79,0.00,,,0.00,WUHU216DAVISVP2,2013-07-25 19:52:00,
2013-07-25 15:57:00,81.1,74.1,29.85,SE,136,2.0,10.0,79,0.00,,,0.00,WUHU216DAVISVP2,2013-07-25 19:57:00,
2013-07-25 16:02:00,81.7,74.7,29.85,SSE,147,7.0,10.0,79,0.00,,,0.00,WUHU216DAVISVP2,2013-07-25 20:02:00,
2013-07-25 16:07:00,82.0,75.0,29.85,SE,136,4.0,9.0,79,0.00,,,0.00,WUHU216DAVISVP2,2013-07-25 20:07:00,
2013-07-25 16:12:00,82.1,74.2,29.85,South,176,5.0,9.0,77,0.00,,,0.00,WUHU216DAVISVP2,2013-07-25 20:12:00,
2013-07-25 16:17:00,82.1,73.8,29.85,SSW,194,5.0,9.0,76,0.00,,,0.00,WUHU216DAVISVP2,2013-07-25 20:17:00,
2013-07-25 16:22:00,82.1,74.2,29.85,WSW,255,4.0,9.0,77,0.00,,,0.00,WUHU216DAVISVP2,2013-07-25 20:22:00,
2013-07-25 16:27:00,81.9,73.6,29.85,SW,233,5.0,9.0,76,0.00,,,0.00,WUHU216DAVISVP2,2013-07-25 20:27:00,
2013-07-25 16:32:00,82.0,74.2,29.85,WSW,239,3.0,9.0,77,0.00,,,0.00,WUHU216DAVISVP2,2013-07-25 20:32:00,
2013-07-25 16:37:00,83.1,74.2,29.85,West,276,6.0,9.0,74,0.00,,,0.00,WUHU216DAVISVP2,2013-07-25 20:37:00,
2013-07-25 16:42:00,83.4,74.4,29.85,SW,224,4.0,9.0,74,0.00,,,0.00,WUHU216DAVISVP2,2013-07-25 20:42:00,
2013-07-25 16:47:00,83.4,74.0,29.85,West,260,8.0,9.0,73,0.00,,,0.00,WUHU216DAVISVP2,2013-07-25 20:47:00,
2013-07-25 16:52:00,82.5,73.8,29.85,West,261,4.0,9.0,75,0.00,,,0.00,WUHU216DAVISVP2,2013-07-25 20:52:00,
2013-07-25 16:57:00,81.9,73.8,29.85,SW,226,6.0,10.0,76,0.00,,,0.00,WUHU216DAVISVP2,2013-07-25 20:57:00,
2013-07-25 17:02:00,81.9,74.1,29.85,WSW,238,9.0,10.0,77,0.00,,,0.00,WUHU216DAVISVP2,2013-07-25 21:02:00,
2013-07-25 17:07:00,81.7,74.3,29.85,WSW,247,6.0,11.0,78,0.00,,,0.00,WUHU216DAVISVP2,2013-07-25 21:07:00,
2013-07-25 17:12:00,81.8,74.4,29.85,WSW,257,7.0,11.0,78,0.00,,,0.00,WUHU216DAVISVP2,2013-07-25 21:12:00,
2013-07-25 17:17:00,81.8,74.3,29.86,West,264,6.0,11.0,78,0.00,,,0.00,WUHU216DAVISVP2,2013-07-25 21:17:00,
2013-07-25 17:22:00,82.1,74.6,29.85,West,269,7.0,10.0,78,0.00,,,0.00,WUHU216DAVISVP2,2013-07-25 21:22:00,
2013-07-25 17:27:00,82.1,74.2,29.86,WNW,284,5.0,10.0,77,0.00,,,0.00,WUHU216DAVISVP2,2013-07-25 21:27:00,
2013-07-25 17:32:00,82.6,74.8,29.85,WSW,237,8.0,10.0,77,0.00,,,0.00,WUHU216DAVISVP2,2013-07-25 21:32:00,
2013-07-25 17:37:00,82.4,74.2,29.85,West,266,5.0,10.0,76,0.00,,,0.00,WUHU216DAVISVP2,2013-07-25 21:37:00,
2013-07-25 17:42:00,82.6,75.2,29.86,WSW,257,4.0,10.0,78,0.00,,,0.00,WUHU216DAVISVP2,2013-07-25 21:42:00,
2013-07-25 17:47:00,82.7,74.9,29.86,WSW,249,5.0,10.0,77,0.00,,,0.00,WUHU216DAVISVP2,2013-07-25 21:47:00,
2013-07-25 17:52:00,83.0,74.8,29.86,West,263,6.0,10.0,76,0.00,,,0.00,WUHU216DAVISVP2,2013-07-25 21:52:00,
2013-07-25 17:57:00,83.2,74.8,29.86,West,266,6.0,9.0,76,0.00,,,0.00,WUHU216DAVISVP2,2013-07-25 21:57:00,
2013-07-25 18:02:00,83.3,74.5,29.86,WSW,241,6.0,10.0,75,0.00,,,0.00,WUHU216DAVISVP2,2013-07-25 22:02:00,
2013-07-25 18:07:00,83.3,75.1,29.86,West,276,5.0,10.0,76,0.00,,,0.00,WUHU216DAVISVP2,2013-07-25 22:07:00,
2013-07-25 18:12:00,83.3,75.5,29.86,West,273,5.0,10.0,77,0.00,,,0.00,WUHU216DAVISVP2,2013-07-25 22:12:00,
2013-07-25 18:17:00,83.5,75.3,29.86,West,269,7.0,10.0,76,0.00,,,0.00,WUHU216DAVISVP2,2013-07-25 22:17:00,
2013-07-25 18:22:00,83.6,75.8,29.86,WNW,288,5.0,9.0,77,0.00,,,0.00,WUHU216DAVISVP2,2013-07-25 22:22:00,
2013-07-25 18:27:00,83.8,75.6,29.86,WSW,255,6.0,9.0,76,0.00,,,0.00,WUHU216DAVISVP2,2013-07-25 22:27:00,
2013-07-25 18:32:00,83.1,75.3,29.87,West,262,6.0,9.0,77,0.00,,,0.00,WUHU216DAVISVP2,2013-07-25 22:32:00,
2013-07-25 18:37:00,82.9,75.1,29.87,West,263,4.0,9.0,77,0.00,,,0.00,WUHU216DAVISVP2,2013-07-25 22:37:00,
2013-07-25 18:42:00,82.8,75.4,29.87,WSW,237,4.0,9.0,78,0.00,,,0.00,WUHU216DAVISVP2,2013-07-25 22:42:00,
2013-07-25 18:47:00,82.5,75.5,29.87,West,264,6.0,9.0,79,0.00,,,0.00,WUHU216DAVISVP2,2013-07-25 22:47:00,
2013-07-25 18:53:00,82.3,75.3,29.87,West,259,7.0,9.0,79,0.00,,,0.00,WUHU216DAVISVP2,2013-07-25 22:53:00,
2013-07-25 18:58:00,82.4,75.2,29.87,West,259,5.0,9.0,79,0.00,,,0.00,WUHU216DAVISVP2,2013-07-25 22:58:00,
2013-07-25 19:03:00,82.7,75.3,29.88,West,264,3.0,9.0,78,0.00,,,0.00,WUHU216DAVISVP2,2013-07-25 23:03:00,
2013-07-25 19:08:00,82.9,75.9,29.88,SW,222,4.0,8.0,79,0.00,,,0.00,WUHU216DAVISVP2,2013-07-25 23:08:00,
2013-07-25 19:13:00,82.5,75.1,29.88,SSE,149,6.0,7.0,78,0.00,,,0.00,WUHU216DAVISVP2,2013-07-25 23:13:00,
2013-07-25 19:18:00,81.6,74.6,29.88,SE,141,7.0,10.0,79,0.00,,,0.00,WUHU216DAVISVP2,2013-07-25 23:18:00,
2013-07-25 19:23:00,81.3,74.7,29.88,SSE,148,5.0,10.0,80,0.00,,,0.00,WUHU216DAVISVP2,2013-07-25 23:23:00,
2013-07-25 19:28:00,81.2,75.2,29.88,SSE,150,4.0,10.0,82,0.00,,,0.00,WUHU216DAVISVP2,2013-07-25 23:28:00,
2013-07-25 19:33:00,81.1,75.1,29.89,South,183,1.0,10.0,82,0.00,,,0.00,WUHU216DAVISVP2,2013-07-25 23:33:00,
2013-07-25 19:37:00,81.2,75.5,29.89,South,172,2.0,8.0,83,0.00,,,0.00,WUHU216DAVISVP2,2013-07-25 23:37:00,
2013-07-25 19:42:00,81.3,75.7,29.89,SSW,209,1.0,6.0,83,0.00,,,0.00,WUHU216DAVISVP2,2013-07-25 23:42:00,
2013-07-25 19:47:00,81.4,75.8,29.89,SW,219,1.0,5.0,83,0.00,,,0.00,WUHU216DAVISVP2,2013-07-25 23:47:00,
2013-07-25 19:53:00,81.6,75.7,29.89,SSW,203,1.0,4.0,82,0.00,,,0.00,WUHU216DAVISVP2,2013-07-25 23:53:00,
2013-07-25 19:58:00,81.8,75.9,29.89,SSE,147,0.0,4.0,82,0.00,,,0.00,WUHU216DAVISVP2,2013-07-25 23:58:00,
2013-07-25 20:03:00,81.9,76.0,29.89,NNE,32,2.0,4.0,82,0.00,,,0.00,WUHU216DAVISVP2,2013-07-26 00:03:00,
2013-07-25 20:08:00,81.1,75.9,29.89,East,81,1.0,4.0,84,0.00,,,0.00,WUHU216DAVISVP2,2013-07-26 00:08:00,
2013-07-25 20:13:00,80.6,75.7,29.90,SE,136,0.0,4.0,85,0.00,,,0.00,WUHU216DAVISVP2,2013-07-26 00:13:00,
2013-07-25 20:17:00,80.5,76.0,29.90,ENE,62,0.0,4.0,86,0.00,,,0.00,WUHU216DAVISVP2,2013-07-26 00:17:00,
2013-07-25 20:23:00,80.2,75.7,29.90,ESE,105,2.0,4.0,86,0.00,,,0.00,WUHU216DAVISVP2,2013-07-26 00:23:00,
2013-07-25 20:27:00,80.1,75.9,29.90,ESE,105,0.0,3.0,87,0.00,,,0.00,WUHU216DAVISVP2,2013-07-26 00:27:00,
2013-07-25 20:32:00,80.0,75.8,29.90,SE,136,1.0,3.0,87,0.00,,,0.00,WUHU216DAVISVP2,2013-07-26 00:32:00,
2013-07-25 20:37:00,80.0,75.8,29.90,SE,127,0.0,3.0,87,0.00,,,0.00,WUHU216DAVISVP2,2013-07-26 00:37:00,
2013-07-25 20:43:00,79.9,75.7,29.90,SE,129,0.0,3.0,87,0.00,,,0.00,WUHU216DAVISVP2,2013-07-26 00:43:00,
2013-07-25 20:48:00,79.9,75.7,29.91,SE,129,0.0,2.0,87,0.00,,,0.00,WUHU216DAVISVP2,2013-07-26 00:48:00,
2013-07-25 20:53:00,79.8,75.6,29.91,SE,141,1.0,2.0,87,0.00,,,0.00,WUHU216DAVISVP2,2013-07-26 00:53:00,
2013-07-25 20:57:00,79.8,75.9,29.91,SE,139,1.0,2.0,88,0.00,,,0.00,WUHU216DAVISVP2,2013-07-26 00:57:00,
2013-07-25 21:02:00,79.8,75.2,29.91,NW,321,2.0,4.0,86,0.00,,,0.00,WUHU216DAVISVP2,2013-07-26 01:02:00,
2013-07-25 21:07:00,80.3,74.7,29.91,NE,44,3.0,7.0,83,0.00,,,0.00,WUHU216DAVISVP2,2013-07-26 01:07:00,
2013-07-25 21:12:00,80.7,73.3,29.92,North,11,3.0,11.0,78,0.00,,,0.00,WUHU216DAVISVP2,2013-07-26 01:12:00,
2013-07-25 21:17:00,80.8,73.4,29.92,NE,39,7.0,11.0,78,0.00,,,0.00,WUHU216DAVISVP2,2013-07-26 01:17:00,
2013-07-25 21:22:00,80.8,73.4,29.92,NE,37,7.0,11.0,78,0.00,,,0.00,WUHU216DAVISVP2,2013-07-26 01:22:00,
2013-07-25 21:27:00,80.7,73.3,29.93,NE,34,4.0,11.0,78,0.00,,,0.00,WUHU216DAVISVP2,2013-07-26 01:27:00,
2013-07-25 21:33:00,80.8,73.1,29.93,NNE,12,5.0,10.0,77,0.00,,,0.00,WUHU216DAVISVP2,2013-07-26 01:33:00,
2013-07-25 21:38:00,80.7,73.3,29.93,NNE,17,3.0,10.0,78,0.00,,,0.00,WUHU216DAVISVP2,2013-07-26 01:38:00,
2013-07-25 21:43:00,80.8,72.5,29.94,NW,307,2.0,10.0,76,0.00,,,0.00,WUHU216DAVISVP2,2013-07-26 01:43:00,
2013-07-25 21:48:00,80.9,72.6,29.94,NW,326,2.0,8.0,76,0.00,,,0.00,WUHU216DAVISVP2,2013-07-26 01:48:00,
2013-07-25 21:53:00,80.8,72.7,29.94,NW,309,5.0,8.0,76,0.00,,,0.00,WUHU216DAVISVP2,2013-07-26 01:53:00,
2013-07-25 21:57:00,80.5,72.4,29.94,North,350,4.0,7.0,76,0.00,,,0.00,WUHU216DAVISVP2,2013-07-26 01:57:00,
2013-07-25 22:02:00,80.3,72.6,29.94,NW,323,2.0,7.0,77,0.00,,,0.00,WUHU216DAVISVP2,2013-07-26 02:02:00,
2013-07-25 22:07:00,80.2,72.5,29.94,NW,314,4.0,7.0,77,0.00,,,0.00,WUHU216DAVISVP2,2013-07-26 02:07:00,
2013-07-25 22:12:00,80.1,72.4,29.94,North,8,3.0,10.0,77,0.00,,,0.00,WUHU216DAVISVP2,2013-07-26 02:12:00,
2013-07-25 22:17:00,80.0,72.3,29.94,North,359,8.0,10.0,77,0.00,,,0.00,WUHU216DAVISVP2,2013-07-26 02:17:00,
2013-07-25 22:22:00,79.9,72.0,29.95,NNE,18,6.0,11.0,77,0.00,,,0.00,WUHU216DAVISVP2,2013-07-26 02:22:00,
2013-07-25 22:27:00,79.7,71.8,29.95,NNW,327,3.0,11.0,77,0.00,,,0.00,WUHU216DAVISVP2,2013-07-26 02:27:00,
2013-07-25 22:32:00,79.6,71.9,29.95,NNE,15,3.0,11.0,77,0.00,,,0.00,WUHU216DAVISVP2,2013-07-26 02:32:00,
2013-07-25 22:37:00,79.5,72.2,29.95,NNE,18,5.0,11.0,78,0.00,,,0.00,WUHU216DAVISVP2,2013-07-26 02:37:00,
2013-07-25 22:42:00,79.3,72.0,29.95,North,1,4.0,9.0,78,0.00,,,0.00,WUHU216DAVISVP2,2013-07-26 02:42:00,
2013-07-25 22:47:00,79.2,72.2,29.95,NNE,13,3.0,9.0,79,0.00,,,0.00,WUHU216DAVISVP2,2013-07-26 02:47:00,
2013-07-25 22:52:00,79.1,72.2,29.95,NNE,33,2.0,9.0,79,0.00,,,0.00,WUHU216DAVISVP2,2013-07-26 02:52:00,
2013-07-25 22:57:00,79.0,72.1,29.95,NNE,18,4.0,8.0,79,0.00,,,0.00,WUHU216DAVISVP2,2013-07-26 02:57:00,
2013-07-25 23:02:00,78.9,72.0,29.95,NE,40,3.0,7.0,79,0.00,,,0.00,WUHU216DAVISVP2,2013-07-26 03:02:00,
2013-07-25 23:07:00,78.9,72.3,29.95,NE,41,6.0,9.0,80,0.00,,,0.00,WUHU216DAVISVP2,2013-07-26 03:07:00,
2013-07-25 23:12:00,78.8,72.2,29.95,NNE,14,5.0,10.0,80,0.00,,,0.00,WUHU216DAVISVP2,2013-07-26 03:12:00,
2013-07-25 23:17:00,78.8,72.2,29.95,NNW,336,3.0,10.0,80,0.00,,,0.00,WUHU216DAVISVP2,2013-07-26 03:17:00,
2013-07-25 23:22:00,78.7,72.1,29.95,NNE,31,8.0,12.0,80,0.00,,,0.00,WUHU216DAVISVP2,2013-07-26 03:22:00,
2013-07-25 23:27:00,78.7,72.5,29.95,NE,44,6.0,12.0,81,0.00,,,0.00,WUHU216DAVISVP2,2013-07-26 03:27:00,
2013-07-25 23:32:00,78.6,72.4,29.95,NNW,342,4.0,12.0,81,0.00,,,0.00,WUHU216DAVISVP2,2013-07-26 03:32:00,
2013-07-25 23:37:00,78.5,72.3,29.96,NNE,25,1.0,12.0,81,0.00,,,0.00,WUHU216DAVISVP2,2013-07-26 03:37:00,
2013-07-25 23:42:00,78.4,72.2,29.96,North,354,2.0,12.0,81,0.00,,,0.00,WUHU216DAVISVP2,2013-07-26 03:42:00,
2013-07-25 23:47:00,78.2,72.0,29.96,North,358,5.0,11.0,81,0.00,,,0.00,WUHU216DAVISVP2,2013-07-26 03:47:00,
2013-07-25 23:52:00,78.1,72.2,29.96,NNW,347,4.0,10.0,82,0.00,,,0.00,WUHU216DAVISVP2,2013-07-26 03:52:00,
2013-07-25 23:57:00,77.9,72.0,29.96,NE,35,4.0,10.0,82,0.00,,,0.00,WUHU216DAVISVP2,2013-07-26 03:57:00,